Location: Burtsch�tz
(51.0528°N, 12.1764°E)
Time: 13:39:18
(UTC+00:00)

Cosmos 1503 Rocket - Pass Details

Date: 29 October 2020
Orbit: 752 x 791 km, 74.0° (Epoch: 28 November)

Event Time Altitude Azimuth Distance (km) Brightness Sun altitude
Rises 17:14:27 0° 336° (NNW) 3,229 7.5 -13.7°
Reaches altitude 10° 17:16:50 10° 339° (NNW) 2,305 6.7 -14.1°
Maximum altitude 17:22:03 69° 63° (ENE) 822 3.9 -14.9°
Drops below altitude 10° 17:27:17 10° 147° (SSE) 2,314 6.2 -15.7°
Sets 17:29:41 0° 150° (SSE) 3,243 7.0 -16.1°
Enters shadow 17:29:46 - 150° (SSE) 3,274 7.0 -16.1°
